Voltar ao catálogo

DELTA 1 DEB

AtivoSSO
NORAD 21282·DEBRIS·🇺🇸 United States

Lançado Jun 12, 1975 de Vandenberg Space Force Base

Loading…

Próximas Passagens (próximas 24 horas)

TLE

AtualizadoSource: Space-Track

Época: Sep 14, 2026, 14:09 UTC

1 21282U 75052T   26257.58979128  .00000057  00000-0  21923-3 0  9997
2 21282  99.8236 186.4019 0100878  74.5474 100.0629 13.24866919709708

Acompanhe DELTA 1 DEB em tempo real com AllMySat

Download on the App Store